STARLINK-34490

导读

STARLINK-34490是美国太空探索技术公司星链星座的卫星,于2025年6月23日发射入轨,属于星链互联网星座组网卫星,延续了星链卫星的设计特点,主要为全球提供低延迟、高速率的宽带互联网服务,尤其覆盖偏远地区和网络基础设施薄弱区域,进一步扩充星链星座的服务覆盖范围与容量。

Basic Information
目录编号:
64478
目录名称:
STARLINK-34490
国际标识:
2025-133G
轨道中心:
EARTH
卫星名称:
STARLINK-34490
卫星全名:
STARLINK-34490
卫星状态:
在轨 (已飞行355 天)
发射日期:
2025-06-23 UTC
国别 :
美国 (US)
星等 :
--
Orbit Information
数据来源 国际轨道数据
星历时间: 2026-06-13T15:54:39+0800
15小时前
查看轨道信息
半长轴: 6853.313km
偏心率: 0.0000937
轨道倾角: 53.159°
近地点辐角 89.651°
升交点赤经 32.398°
平近点角 270.460°
近地点: 474.533km
远地点: 475.819km
周期: 94.105分钟
每日圈数: 15.302134
Detailed Information
使用方式:
暂无
2D Orbit Map
3D Orbit Map
Orbit Altitude Analysis Chart
Orbit Inclination Analysis Chart
Orbit Comprehensive Analysis Chart
View Comprehensive Chart